Paducah, KY

4:30 AM CDT on May 27, 2017 (GMT -0500)
Barkley Regional

Weather History for KPAH - January, 2014

Change the Weather History Date:

Monday, January 27, 2014

  Actual Average Record
Temperature  
Mean Temperature 30 °F 35 °F  
Max Temperature 46 °F 44 °F 70 °F (1947)
Min Temperature 14 °F 26 °F -5 °F (1940)
Degree Days  
Heating Degree Days 35 30  
Month to date heating degree days 913 827  
Since 1 July heating degree days 2573 2458  
Cooling Degree Days 0 0  
Month to date cooling degree days 0 0  
Year to date cooling degree days 0 0  
Moisture  
Dew Point -1 °F    
Average Humidity 47    
Maximum Humidity 61    
Minimum Humidity 33    
Precipitation  
Precipitation 0.00 in 0.12 in 2.49 in (2009)
Month to date precipitation 1.95 3.18  
Year to date precipitation 1.95 3.18  
Snow  
Snow 0.00 in 0.10 in 3.80 in (1985)
Month to date snowfall 1.1 2.5  
Since 1 July snowfall 6.3 4.8  
Snow Depth 0.00 in    
Sea Level Pressure  
Sea Level Pressure 30.31 in    
Wind  
Wind Speed 16 mph (North)    
Max Wind Speed 32 mph    
Max Gust Speed 45 mph    
Visibility 10 miles    
Events      
T = Trace of Precipitation, MM = Missing Value Source: NWS Daily Summary

Daily Weather History Graph

Daily Weather History Graph

Search for Another Location

Airport or City:

Trip Planner

Search our weather history database for the weather conditions in past years. The results will help you decide how hot, cold, wet, or windy it might be!

Date:

Astronomy

Jan. 27, 2014 Rise Set
Actual Time 7:01 AM CST 5:14 PM CST
Civil Twilight 6:33 AM CST 5:42 PM CST
Nautical Twilight 6:02 AM CST 6:13 PM CST
Astronomical Twilight 5:31 AM CST 6:44 PM CST
Moon 3:41 AM CST 2:01 PM CST
Length of Visible Light 11h 08m
Length of Day
10h 13m
Waning Crescent, 14% of the Moon is Illuminated
Jan 27
Waning Crescent
Jan 30
New
Feb 6
First Quarter
Feb 14
Full
Feb 22
Last Quarter

Hourly Weather History & Observations

Time (CST) Temp. Windchill Dew Point Humidity Pressure Visibility Wind Dir Wind Speed Gust Speed Precip Events Conditions
12:53 AM 37.0 °F 25.1 °F 25.0 °F 62% 29.89 in 10.0 mi NNW 26.5 mph 40.3 mph N/A   Partly Cloudy
1:53 AM 34.0 °F 20.1 °F 21.0 °F 59% 29.96 in 10.0 mi North 31.1 mph 40.3 mph N/A   Clear
2:53 AM 28.9 °F 14.5 °F 14.0 °F 54% 30.03 in 10.0 mi North 25.3 mph 38.0 mph N/A   Clear
3:53 AM 26.1 °F 13.1 °F 8.1 °F 47% 30.09 in 10.0 mi North 17.3 mph - N/A   Clear
4:53 AM 24.1 °F 9.0 °F 1.9 °F 38% 30.14 in 10.0 mi North 21.9 mph 29.9 mph N/A   Overcast
5:53 AM 21.0 °F 6.6 °F -4.0 °F 33% 30.18 in 10.0 mi North 17.3 mph - N/A   Mostly Cloudy
6:53 AM 19.0 °F 2.0 °F -5.1 °F 34% 30.25 in 10.0 mi NNE 23.0 mph 29.9 mph N/A   Overcast
7:53 AM 19.0 °F 4.0 °F -4.0 °F 36% 30.28 in 10.0 mi North 17.3 mph - N/A   Overcast
8:53 AM 19.0 °F 3.2 °F -5.1 °F 34% 30.32 in 10.0 mi North 19.6 mph 27.6 mph N/A   Overcast
9:53 AM 18.0 °F 1.7 °F -5.1 °F 36% 30.35 in 10.0 mi North 19.6 mph - N/A   Partly Cloudy
10:53 AM 19.9 °F 5.7 °F -2.9 °F 37% 30.36 in 10.0 mi NNE 16.1 mph 20.7 mph N/A   Scattered Clouds
11:53 AM 21.0 °F 8.1 °F -2.9 °F 35% 30.35 in 10.0 mi NNE 13.8 mph - N/A   Clear
12:53 PM 19.9 °F 9.3 °F -4.0 °F 35% 30.34 in 10.0 mi North 9.2 mph 18.4 mph N/A   Clear
1:53 PM 19.9 °F 7.3 °F -6.0 °F 32% 30.34 in 10.0 mi NNW 12.7 mph 18.4 mph N/A   Clear
2:53 PM 19.9 °F 7.3 °F -6.0 °F 32% 30.35 in 10.0 mi North 12.7 mph - N/A   Clear
3:53 PM 19.0 °F 7.5 °F -6.0 °F 33% 30.38 in 10.0 mi North 10.4 mph - N/A   Clear
4:53 PM 18.0 °F 6.1 °F -5.1 °F 36% 30.38 in 10.0 mi North 10.4 mph - N/A   Clear
5:53 PM 17.1 °F 4.3 °F -2.9 °F 41% 30.41 in 10.0 mi North 11.5 mph - N/A   Clear
6:53 PM 17.1 °F 4.3 °F -2.9 °F 41% 30.44 in 10.0 mi North 11.5 mph - N/A   Clear
7:53 PM 16.0 °F 3.6 °F -2.0 °F 45% 30.45 in 10.0 mi North 10.4 mph - N/A   Clear
8:53 PM 15.1 °F 0.5 °F -4.0 °F 43% 30.46 in 10.0 mi North 13.8 mph - N/A   Clear
9:53 PM 14.0 °F -0.8 °F -2.9 °F 47% 30.46 in 10.0 mi North 13.8 mph - N/A   Clear
10:53 PM 14.0 °F -1.4 °F -5.1 °F 43% 30.47 in 10.0 mi NNE 15.0 mph - N/A   Clear
11:53 PM 14.0 °F -1.4 °F -4.0 °F 45% 30.49 in 10.0 mi NE 15.0 mph - N/A   Partly Cloudy